| time (UTC) | temp F | wind direction | speed knots | gust knots | rain 1hr in | rain 24hr in | rain mn in | humidity % | barometer mb |
| 20260506033744 | 60 | 118 | 0.9 | 0.9 | 0.00 | 0.00 | 0.00 | 83 | 1016.7 |
| 20260506033241 | 60 | 119 | 0.0 | 0.9 | 0.00 | 0.00 | 0.00 | 83 | 1016.7 |
| 20260506032738 | 60 | 119 | 0.0 | 0.9 | 0.00 | 0.00 | 0.00 | 83 | 1016.7 |
| 20260506032235 | 60 | 119 | 0.0 | 0.9 | 0.00 | 0.00 | 0.00 | 82 | 1016.3 |
| 20260506031732 | 60 | 119 | 0.0 | 0.0 | 0.00 | 0.00 | 0.00 | 82 | 1016.3 |
| 20260506031229 | 60 | 119 | 0.0 | 0.9 | 0.00 | 0.00 | 0.00 | 82 | 1016.3 |
| 20260506030727 | 60 | 119 | 0.0 | 0.9 | 0.00 | 0.00 | 0.00 | 81 | 1016.3 |
| 20260506030225 | 60 | 119 | 0.0 | 0.9 | 0.00 | 0.00 | 0.00 | 81 | 1016.5 |
| 20260506025721 | 60 | 119 | 0.0 | 0.9 | 0.00 | 0.00 | 0.00 | 81 | 1016.4 |
| 20260506025218 | 61 | 119 | 0.9 | 0.9 | 0.00 | 0.00 | 0.00 | 80 | 1016.5 |
| 20260506024715 | 61 | 119 | 0.0 | 0.9 | 0.00 | 0.00 | 0.00 | 80 | 1016.6 |
| 20260506024211 | 61 | 119 | 0.0 | 0.0 | 0.00 | 0.00 | 0.00 | 79 | 1016.6 |
| 20260506023708 | 61 | 119 | 0.9 | 0.9 | 0.00 | 0.00 | 0.00 | 79 | 1016.6 |
| 20260506023205 | 62 | 119 | 0.0 | 0.0 | 0.00 | 0.00 | 0.00 | 79 | 1016.5 |
| 20260506022702 | 62 | 119 | 0.0 | 0.0 | 0.00 | 0.00 | 0.00 | 78 | 1016.6 |
| 20260506022159 | 62 | 118 | 0.9 | 0.9 | 0.00 | 0.00 | 0.00 | 78 | 1016.6 |
| 20260506021657 | 62 | 118 | 0.0 | 0.9 | 0.00 | 0.00 | 0.00 | 77 | 1016.5 |
| 20260506021154 | 63 | 119 | 0.0 | 0.0 | 0.00 | 0.00 | 0.00 | 77 | 1016.4 |
| 20260506020651 | 63 | 119 | 0.0 | 0.0 | 0.00 | 0.00 | 0.00 | 76 | 1016.5 |
| 20260506020149 | 63 | 119 | 0.0 | 0.0 | 0.00 | 0.00 | 0.00 | 75 | 1016.3 |
| 20260506015646 | 64 | 119 | 0.0 | 0.0 | 0.00 | 0.00 | 0.00 | 75 | 1016.3 |
| 20260506015144 | 64 | 119 | 0.0 | 0.0 | 0.00 | 0.00 | 0.00 | 75 | 1016.2 |
| 20260506014641 | 64 | 119 | 0.0 | 0.0 | 0.00 | 0.00 | 0.00 | 74 | 1016.5 |
| 20260506014136 | 65 | 119 | 0.0 | 0.0 | 0.00 | 0.00 | 0.00 | 73 | 1016.0 |
| 20260506013635 | 65 | 119 | 0.0 | 0.0 | 0.00 | 0.00 | 0.00 | 73 | 1016.0 |
| 20260506013131 | 66 | 119 | 0.0 | 0.0 | 0.00 | 0.00 | 0.00 | 72 | 1016.1 |
| 20260506012627 | 66 | 119 | 0.9 | 0.9 | 0.00 | 0.00 | 0.00 | 71 | 1016.1 |
| 20260506012124 | 67 | 118 | 0.0 | 0.0 | 0.00 | 0.00 | 0.00 | 71 | 1016.1 |
| 20260506011621 | 67 | 118 | 0.0 | 0.0 | 0.00 | 0.00 | 0.00 | 70 | 1016.1 |
| 20260506011118 | 67 | 119 | 0.0 | 0.9 | 0.00 | 0.00 | 0.00 | 70 | 1016.2 |
| 20260506010612 | 68 | 118 | 0.0 | 0.0 | 0.00 | 0.00 | 0.00 | 70 | 1016.0 |
| 20260506010108 | 68 | 118 | 0.0 | 0.9 | 0.00 | 0.00 | 0.00 | 69 | 1016.2 |
| 20260506005605 | 68 | 119 | 0.0 | 0.9 | 0.00 | 0.00 | 0.00 | 68 | 1015.9 |
| 20260506005102 | 69 | 119 | 0.0 | 0.0 | 0.00 | 0.00 | 0.00 | 68 | 1016.1 |
| 20260506004559 | 69 | 119 | 0.0 | 0.0 | 0.00 | 0.00 | 0.00 | 66 | 1016.0 |
| 20260506004055 | 69 | 119 | 0.0 | 0.9 | 0.00 | 0.00 | 0.00 | 65 | 1016.1 |
| 20260506003551 | 69 | 119 | 0.0 | 0.9 | 0.00 | 0.00 | 0.00 | 65 | 1016.1 |
| 20260506003048 | 69 | 119 | 0.0 | 0.9 | 0.00 | 0.00 | 0.00 | 64 | 1016.0 |
| 20260506002544 | 70 | 119 | 0.0 | 0.9 | 0.00 | 0.00 | 0.00 | 64 | 1016.0 |
| 20260506002040 | 70 | 117 | 0.0 | 0.9 | 0.00 | 0.00 | 0.00 | 64 | 1015.7 |
| 20260506001536 | 70 | 159 | 0.0 | 0.9 | 0.00 | 0.00 | 0.00 | 62 | 1016.1 |
| 20260506001034 | 71 | 160 | 0.0 | 0.9 | 0.00 | 0.00 | 0.00 | 62 | 1016.1 |
| 20260506000531 | 71 | 120 | 0.0 | 0.0 | 0.00 | 0.00 | 0.00 | 61 | 1016.2 |
| 20260506000028 | 71 | 120 | 0.9 | 0.9 | 0.00 | 0.00 | 0.00 | 59 | 1015.9 |
| 20260505235526 | 72 | 120 | 0.0 | 0.9 | 0.00 | 0.00 | 0.00 | 59 | 1016.2 |
| 20260505235022 | 72 | 120 | 0.0 | 0.9 | 0.00 | 0.00 | 0.00 | 58 | 1015.9 |
| 20260505234520 | 72 | 120 | 0.0 | 0.9 | 0.00 | 0.00 | 0.00 | 56 | 1015.9 |
| 20260505234017 | 73 | 120 | 0.0 | 0.9 | 0.00 | 0.00 | 0.00 | 55 | 1015.9 |
| 20260505233514 | 73 | 119 | 0.0 | 0.9 | 0.00 | 0.00 | 0.00 | 54 | 1016.0 |
| 20260505233011 | 74 | 117 | 0.0 | 0.9 | 0.00 | 0.00 | 0.00 | 52 | 1015.9 |
| 20260505232509 | 75 | 117 | 0.0 | 0.9 | 0.00 | 0.00 | 0.00 | 51 | 1016.0 |
| 20260505232006 | 77 | 25 | 0.9 | 1.7 | 0.00 | 0.00 | 0.00 | 49 | 1015.6 |
| 20260505231503 | 78 | 111 | 0.0 | 0.9 | 0.00 | 0.00 | 0.00 | 48 | 1015.7 |
| 20260505231002 | 79 | 58 | 0.9 | 1.7 | 0.00 | 0.00 | 0.00 | 46 | 1015.9 |
| 20260505230459 | 79 | 141 | 0.9 | 0.9 | 0.00 | 0.00 | 0.00 | 46 | 1015.5 |
| 20260505225955 | 81 | 67 | 0.9 | 1.7 | 0.00 | 0.00 | 0.00 | 45 | 1015.6 |
| 20260505225452 | 80 | 187 | 0.0 | 0.9 | 0.00 | 0.00 | 0.00 | 45 | 1015.7 |
| 20260505224948 | 80 | 151 | 0.9 | 1.7 | 0.00 | 0.00 | 0.00 | 46 | 1016.0 |
| 20260505224445 | 77 | 46 | 1.7 | 1.7 | 0.00 | 0.00 | 0.00 | 46 | 1015.6 |
| 20260505223942 | 77 | 69 | 0.9 | 1.7 | 0.00 | 0.00 | 0.00 | 45 | 1015.6 |
| 20260505223439 | 77 | 25 | 2.6 | 2.6 | 0.00 | 0.00 | 0.00 | 44 | 1015.6 |
| 20260505222935 | 79 | 14 | 1.7 | 2.6 | 0.00 | 0.00 | 0.00 | 43 | 1016.0 |
| 20260505222432 | 80 | 38 | 0.9 | 3.5 | 0.00 | 0.00 | 0.00 | 42 | 1016.1 |
| 20260505221928 | 81 | 325 | 0.9 | 5.2 | 0.00 | 0.00 | 0.00 | 42 | 1016.1 |
| 20260505221425 | 80 | 38 | 1.7 | 5.2 | 0.00 | 0.00 | 0.00 | 41 | 1016.0 |
| 20260505220922 | 82 | 132 | 0.9 | 3.5 | 0.00 | 0.00 | 0.00 | 41 | 1016.0 |
| 20260505220419 | 82 | 324 | 0.9 | 2.6 | 0.00 | 0.00 | 0.00 | 40 | 1015.7 |
| 20260505215917 | 81 | 36 | 0.9 | 1.7 | 0.00 | 0.00 | 0.00 | 41 | 1015.5 |
| 20260505215415 | 81 | 8 | 1.7 | 2.6 | 0.00 | 0.00 | 0.00 | 41 | 1015.5 |
| 20260505214913 | 80 | 55 | 0.9 | 1.7 | 0.00 | 0.00 | 0.00 | 41 | 1015.9 |
| 20260505214410 | 81 | 28 | 2.6 | 2.6 | 0.00 | 0.00 | 0.00 | 41 | 1015.7 |
| 20260505213907 | 81 | 54 | 4.3 | 6.1 | 0.00 | 0.00 | 0.00 | 40 | 1015.7 |
| 20260505213405 | 81 | 66 | 0.9 | 3.5 | 0.00 | 0.00 | 0.00 | 40 | 1015.7 |
| 20260505212901 | 82 | 19 | 0.9 | 1.7 | 0.00 | 0.00 | 0.00 | 39 | 1016.0 |
| 20260505212358 | 82 | 96 | 3.5 | 5.2 | 0.00 | 0.00 | 0.00 | 39 | 1016.0 |
| 20260505211854 | 81 | 130 | 0.9 | 5.2 | 0.00 | 0.00 | 0.00 | 39 | 1015.9 |
| 20260505211352 | 83 | 332 | 1.7 | 1.7 | 0.00 | 0.00 | 0.00 | 39 | 1015.9 |
| 20260505210848 | 82 | 343 | 1.7 | 3.5 | 0.00 | 0.00 | 0.00 | 40 | 1015.6 |
| 20260505210345 | 82 | 43 | 0.9 | 3.5 | 0.00 | 0.00 | 0.00 | 39 | 1016.0 |
| 20260505205842 | 82 | 60 | 0.9 | 1.7 | 0.00 | 0.00 | 0.00 | 39 | 1015.9 |
| 20260505205340 | 80 | 64 | 0.9 | 2.6 | 0.00 | 0.00 | 0.00 | 40 | 1015.7 |
| 20260505204837 | 80 | 51 | 1.7 | 6.1 | 0.00 | 0.00 | 0.00 | 39 | 1016.2 |
| 20260505204335 | 82 | 161 | 0.9 | 5.2 | 0.00 | 0.00 | 0.00 | 38 | 1016.2 |
| 20260505203832 | 82 | 113 | 2.6 | 3.5 | 0.00 | 0.00 | 0.00 | 38 | 1016.1 |
| 20260505203328 | 81 | 155 | 2.6 | 3.5 | 0.00 | 0.00 | 0.00 | 39 | 1016.3 |
| 20260505202824 | 80 | 331 | 1.7 | 2.6 | 0.00 | 0.00 | 0.00 | 39 | 1016.3 |
| 20260505202320 | 80 | 49 | 1.7 | 8.7 | 0.00 | 0.00 | 0.00 | 39 | 1016.3 |
| 20260505201817 | 81 | 52 | 4.3 | 7.0 | 0.00 | 0.00 | 0.00 | 39 | 1016.3 |
| 20260505201315 | 81 | 39 | 0.9 | 3.5 | 0.00 | 0.00 | 0.00 | 39 | 1016.3 |
| 20260505200813 | 82 | 8 | 2.6 | 3.5 | 0.00 | 0.00 | 0.00 | 40 | 1016.4 |
| 20260505200309 | 81 | 33 | 0.9 | 2.6 | 0.00 | 0.00 | 0.00 | 40 | 1016.5 |
| 20260505195805 | 82 | 69 | 3.5 | 6.1 | 0.00 | 0.00 | 0.00 | 40 | 1016.5 |
| 20260505195305 | 81 | 64 | 0.0 | 2.6 | 0.00 | 0.00 | 0.00 | 40 | 1016.5 |
| 20260505194759 | 81 | 12 | 1.7 | 8.7 | 0.00 | 0.00 | 0.00 | 40 | 1016.8 |
| 20260505194256 | 80 | 113 | 0.9 | 7.8 | 0.00 | 0.00 | 0.00 | 40 | 1016.8 |
| 20260505193751 | 80 | 16 | 0.9 | 2.6 | 0.00 | 0.00 | 0.00 | 40 | 1017.1 |
| 20260505193249 | 81 | 94 | 2.6 | 7.0 | 0.00 | 0.00 | 0.00 | 41 | 1017.0 |
| 20260505192747 | 80 | 50 | 1.7 | 6.1 | 0.00 | 0.00 | 0.00 | 41 | 1017.1 |
| 20260505192245 | 80 | 356 | 1.7 | 7.8 | 0.00 | 0.00 | 0.00 | 40 | 1017.2 |
| 20260505191743 | 80 | 307 | 1.7 | 9.6 | 0.00 | 0.00 | 0.00 | 40 | 1017.0 |
| 20260505191241 | 80 | 84 | 0.9 | 2.6 | 0.00 | 0.00 | 0.00 | 41 | 1017.0 |
| 20260505190737 | 80 | 62 | 1.7 | 7.0 | 0.00 | 0.00 | 0.00 | 41 | 1017.4 |
| 20260505190232 | 80 | 41 | 3.5 | 5.2 | 0.00 | 0.00 | 0.00 | 41 | 1017.6 |
| 20260505185728 | 81 | 73 | 1.7 | 7.0 | 0.00 | 0.00 | 0.00 | 40 | 1017.6 |
| 20260505185225 | 81 | 119 | 0.9 | 1.7 | 0.00 | 0.00 | 0.00 | 42 | 1017.5 |
| 20260505184721 | 79 | 230 | 1.7 | 5.2 | 0.00 | 0.00 | 0.00 | 40 | 1017.7 |
| 20260505184219 | 80 | 21 | 1.7 | 2.6 | 0.00 | 0.00 | 0.00 | 41 | 1017.7 |
| 20260505183715 | 80 | 351 | 0.9 | 1.7 | 0.00 | 0.00 | 0.00 | 41 | 1018.0 |
| 20260505183213 | 80 | 296 | 0.9 | 2.6 | 0.00 | 0.00 | 0.00 | 40 | 1017.9 |
| 20260505182709 | 81 | 66 | 1.7 | 5.2 | 0.00 | 0.00 | 0.00 | 39 | 1017.8 |
| 20260505182206 | 80 | 329 | 1.7 | 3.5 | 0.00 | 0.00 | 0.00 | 40 | 1017.9 |
| 20260505181702 | 80 | 79 | 1.7 | 7.8 | 0.00 | 0.00 | 0.00 | 40 | 1017.9 |
| 20260505181200 | 80 | 273 | 0.9 | 2.6 | 0.00 | 0.00 | 0.00 | 41 | 1018.0 |
| 20260505180656 | 79 | 16 | 1.7 | 3.5 | 0.00 | 0.00 | 0.00 | 41 | 1018.0 |
| 20260505180153 | 80 | 333 | 0.0 | 3.5 | 0.00 | 0.00 | 0.00 | 41 | 1018.0 |
| 20260505175649 | 79 | 337 | 0.9 | 3.5 | 0.00 | 0.00 | 0.00 | 40 | 1018.0 |
| 20260505175146 | 81 | 352 | 0.0 | 1.7 | 0.00 | 0.00 | 0.00 | 42 | 1018.2 |
| 20260505174642 | 79 | 82 | 2.6 | 2.6 | 0.00 | 0.00 | 0.00 | 41 | 1018.1 |
| 20260505174138 | 79 | 36 | 2.6 | 5.2 | 0.00 | 0.00 | 0.00 | 41 | 1018.4 |
| 20260505173635 | 79 | 225 | 2.6 | 2.6 | 0.00 | 0.00 | 0.00 | 40 | 1018.3 |
| 20260505173132 | 79 | 60 | 1.7 | 3.5 | 0.00 | 0.00 | 0.00 | 41 | 1018.6 |
| 20260505172630 | 79 | 34 | 0.9 | 6.1 | 0.00 | 0.00 | 0.00 | 41 | 1018.5 |
| 20260505172126 | 79 | 62 | 5.2 | 8.7 | 0.00 | 0.00 | 0.00 | 42 | 1018.5 |
| 20260505171621 | 78 | 35 | 2.6 | 3.5 | 0.00 | 0.00 | 0.00 | 42 | 1018.5 |
| 20260505171118 | 78 | 54 | 3.5 | 3.5 | 0.00 | 0.00 | 0.00 | 43 | 1018.5 |
| 20260505170615 | 78 | 83 | 1.7 | 9.6 | 0.00 | 0.00 | 0.00 | 44 | 1018.7 |
| 20260505170111 | 78 | 300 | 1.7 | 8.7 | 0.00 | 0.00 | 0.00 | 47 | 1019.0 |
| 20260505165606 | 76 | 254 | 1.7 | 3.5 | 0.00 | 0.00 | 0.00 | 49 | 1018.7 |
| 20260505165102 | 75 | 338 | 1.7 | 2.6 | 0.00 | 0.00 | 0.00 | 49 | 1018.7 |
| 20260505164558 | 76 | 325 | 4.3 | 7.8 | 0.00 | 0.00 | 0.00 | 48 | 1019.0 |
| 20260505164056 | 76 | 302 | 3.5 | 5.2 | 0.00 | 0.00 | 0.00 | 48 | 1018.9 |
| 20260505163555 | 76 | 97 | 1.7 | 3.5 | 0.00 | 0.00 | 0.00 | 48 | 1018.9 |
| 20260505163051 | 76 | 42 | 2.6 | 2.6 | 0.00 | 0.00 | 0.00 | 48 | 1018.8 |
| 20260505162544 | 77 | 40 | 2.6 | 7.8 | 0.00 | 0.00 | 0.00 | 48 | 1018.9 |
| 20260505162041 | 77 | 60 | 1.7 | 2.6 | 0.00 | 0.00 | 0.00 | 48 | 1018.8 |
| 20260505161538 | 78 | 231 | 2.6 | 5.2 | 0.00 | 0.00 | 0.00 | 49 | 1018.8 |
| 20260505161035 | 77 | 48 | 0.9 | 2.6 | 0.00 | 0.00 | 0.00 | 49 | 1019.0 |
| 20260505160533 | 76 | 132 | 0.9 | 2.6 | 0.00 | 0.00 | 0.00 | 49 | 1018.9 |
| 20260505153009 | 73 | 131 | 0.9 | 1.7 | 0.00 | 0.00 | 0.00 | 61 | 1019.4 |
| 20260505152507 | 73 | 64 | 1.7 | 5.2 | 0.00 | 0.00 | 0.00 | 62 | 1019.5 |
| 20260505152002 | 73 | 354 | 1.7 | 1.7 | 0.00 | 0.00 | 0.00 | 62 | 1019.5 |
| 20260505151457 | 72 | 292 | 1.7 | 2.6 | 0.00 | 0.00 | 0.00 | 63 | 1019.6 |
| 20260505150955 | 73 | 346 | 1.7 | 2.6 | 0.00 | 0.00 | 0.00 | 65 | 1019.4 |
| 20260505150452 | 72 | 80 | 0.9 | 1.7 | 0.00 | 0.00 | 0.00 | 65 | 1019.3 |
| 20260505140416 | 64 | 318 | 1.7 | 2.6 | 0.00 | 0.00 | 0.00 | 82 | 1019.3 |
| 20260505124823 | 59 | 92 | 0.0 | 0.0 | 0.00 | 0.00 | 0.00 | 95 | 1018.9 |
| 20260505124315 | 57 | 93 | 0.0 | 0.0 | 0.00 | 0.00 | 0.00 | 96 | 1018.9 |
| 20260505123811 | 55 | 93 | 0.0 | 0.0 | 0.00 | 0.00 | 0.00 | 96 | 1018.8 |
| 20260505123308 | 53 | 93 | 0.0 | 0.0 | 0.00 | 0.00 | 0.00 | 96 | 1018.8 |
| 20260505122803 | 51 | 93 | 0.0 | 0.9 | 0.00 | 0.00 | 0.00 | 95 | 1018.8 |
| 20260505122301 | 50 | 92 | 0.0 | 0.0 | 0.00 | 0.00 | 0.00 | 95 | 1019.0 |
| 20260505121757 | 49 | 92 | 0.0 | 0.0 | 0.00 | 0.00 | 0.00 | 95 | 1018.9 |
| 20260505121254 | 48 | 93 | 0.0 | 0.0 | 0.00 | 0.00 | 0.00 | 95 | 1018.9 |
| 20260505120750 | 48 | 93 | 0.0 | 0.0 | 0.00 | 0.00 | 0.00 | 95 | 1018.8 |
| 20260505120247 | 47 | 93 | 0.0 | 0.0 | 0.00 | 0.00 | 0.00 | 95 | 1018.7 |
| 20260505115746 | 47 | 93 | 0.0 | 0.0 | 0.00 | 0.00 | 0.00 | 95 | 1018.8 |
| 20260505115243 | 46 | 93 | 0.0 | 0.0 | 0.00 | 0.00 | 0.00 | 95 | 1018.9 |
| 20260505114741 | 46 | 93 | 0.0 | 0.0 | 0.00 | 0.00 | 0.00 | 95 | 1018.7 |
| 20260505114236 | 45 | 93 | 0.0 | 0.0 | 0.00 | 0.00 | 0.00 | 95 | 1018.4 |
| 20260505113733 | 45 | 93 | 0.0 | 0.0 | 0.00 | 0.00 | 0.00 | 95 | 1018.6 |
| 20260505113230 | 45 | 93 | 0.0 | 0.0 | 0.00 | 0.00 | 0.00 | 95 | 1018.7 |
| 20260505112726 | 44 | 93 | 0.0 | 0.0 | 0.00 | 0.00 | 0.00 | 94 | 1018.6 |
| 20260505112223 | 44 | 93 | 0.0 | 0.0 | 0.00 | 0.00 | 0.00 | 94 | 1018.3 |
| 20260505111718 | 44 | 92 | 0.0 | 0.0 | 0.00 | 0.00 | 0.00 | 94 | 1018.2 |
| 20260505111214 | 44 | 93 | 0.0 | 0.0 | 0.00 | 0.00 | 0.00 | 94 | 1018.1 |
| 20260505110710 | 44 | 93 | 0.0 | 0.0 | 0.00 | 0.00 | 0.00 | 94 | 1017.9 |
| 20260505110208 | 44 | 93 | 0.0 | 0.0 | 0.00 | 0.00 | 0.00 | 94 | 1018.1 |
| 20260505102143 | 44 | 91 | 0.0 | 0.0 | 0.00 | 0.00 | 0.00 | 94 | 1018.2 |
| 20260505101642 | 44 | 91 | 0.0 | 0.0 | 0.00 | 0.00 | 0.00 | 93 | 1017.9 |
| 20260505101138 | 44 | 91 | 0.0 | 0.0 | 0.00 | 0.00 | 0.00 | 93 | 1018.0 |
| 20260505100634 | 44 | 91 | 0.0 | 0.0 | 0.00 | 0.00 | 0.00 | 93 | 1018.0 |
| 20260505100131 | 44 | 91 | 0.0 | 0.0 | 0.00 | 0.00 | 0.00 | 93 | 1018.0 |
| 20260505095627 | 44 | 91 | 0.0 | 0.0 | 0.00 | 0.00 | 0.00 | 93 | 1017.9 |
| 20260505095124 | 45 | 90 | 0.0 | 0.0 | 0.00 | 0.00 | 0.00 | 93 | 1018.2 |
| 20260505094620 | 45 | 92 | 0.0 | 0.9 | 0.00 | 0.00 | 0.00 | 93 | 1018.1 |
| 20260505094116 | 45 | 92 | 0.0 | 0.0 | 0.00 | 0.00 | 0.00 | 93 | 1018.0 |
| 20260505093612 | 45 | 91 | 0.0 | 0.9 | 0.00 | 0.00 | 0.00 | 93 | 1018.0 |
| 20260505093110 | 45 | 302 | 0.0 | 0.0 | 0.00 | 0.00 | 0.00 | 93 | 1017.9 |
| 20260505092607 | 45 | 0 | 0.9 | 0.9 | 0.00 | 0.00 | 0.00 | 93 | 1017.9 |
| 20260505092106 | 45 | 1 | 0.0 | 0.0 | 0.00 | 0.00 | 0.00 | 93 | 1017.7 |
| 20260505091602 | 45 | 1 | 0.0 | 0.0 | 0.00 | 0.00 | 0.00 | 93 | 1017.8 |
| 20260505091101 | 45 | 1 | 0.0 | 0.0 | 0.00 | 0.00 | 0.00 | 93 | 1017.9 |
| 20260505090558 | 45 | 1 | 0.0 | 0.0 | 0.00 | 0.00 | 0.00 | 92 | 1017.9 |
| 20260505090056 | 45 | 1 | 0.0 | 0.0 | 0.00 | 0.00 | 0.00 | 92 | 1017.9 |
| 20260505085553 | 46 | 1 | 0.0 | 0.0 | 0.00 | 0.00 | 0.00 | 92 | 1018.1 |
| 20260505085052 | 46 | 1 | 0.0 | 0.0 | 0.00 | 0.00 | 0.00 | 92 | 1018.1 |
| 20260505084549 | 46 | 1 | 0.0 | 0.0 | 0.00 | 0.00 | 0.00 | 92 | 1017.8 |
| 20260505084047 | 46 | 1 | 0.0 | 0.0 | 0.00 | 0.00 | 0.00 | 92 | 1017.8 |
| 20260505083543 | 46 | 0 | 0.0 | 0.0 | 0.00 | 0.00 | 0.00 | 92 | 1017.7 |
| 20260505083040 | 46 | 0 | 0.0 | 0.0 | 0.00 | 0.00 | 0.00 | 92 | 1017.8 |
| 20260505082536 | 46 | 0 | 0.0 | 0.9 | 0.00 | 0.00 | 0.00 | 92 | 1018.0 |
| 20260505082033 | 46 | 0 | 0.0 | 0.0 | 0.00 | 0.00 | 0.00 | 92 | 1018.2 |
| 20260505081529 | 46 | 0 | 0.0 | 0.0 | 0.00 | 0.00 | 0.00 | 92 | 1017.9 |
| 20260505081027 | 47 | 0 | 0.0 | 0.0 | 0.00 | 0.00 | 0.00 | 92 | 1018.0 |
| 20260505080522 | 47 | 0 | 0.0 | 0.0 | 0.00 | 0.00 | 0.00 | 91 | 1017.9 |
| 20260505080020 | 47 | 0 | 0.0 | 0.0 | 0.00 | 0.00 | 0.00 | 91 | 1017.7 |
| 20260505075515 | 47 | 0 | 0.0 | 0.0 | 0.00 | 0.00 | 0.00 | 91 | 1017.8 |
| 20260505075013 | 47 | 101 | 0.0 | 1.7 | 0.00 | 0.00 | 0.00 | 91 | 1017.9 |
| 20260505074510 | 47 | 133 | 0.0 | 0.0 | 0.00 | 0.00 | 0.00 | 91 | 1017.6 |
| 20260505074007 | 47 | 133 | 0.0 | 0.0 | 0.00 | 0.00 | 0.00 | 91 | 1017.8 |
| 20260505073504 | 47 | 133 | 0.0 | 0.0 | 0.00 | 0.00 | 0.00 | 91 | 1017.5 |
| 20260505073002 | 47 | 133 | 0.0 | 0.0 | 0.00 | 0.00 | 0.00 | 91 | 1017.3 |
| 20260505072457 | 47 | 133 | 0.0 | 0.0 | 0.00 | 0.00 | 0.00 | 91 | 1017.7 |
| 20260505071954 | 48 | 133 | 0.0 | 0.0 | 0.00 | 0.00 | 0.00 | 90 | 1017.4 |
| 20260505071450 | 48 | 133 | 0.0 | 0.0 | 0.00 | 0.00 | 0.00 | 90 | 1017.5 |
| 20260505070948 | 48 | 133 | 0.0 | 0.0 | 0.00 | 0.00 | 0.00 | 90 | 1017.5 |
| 20260505070444 | 48 | 133 | 0.0 | 0.0 | 0.00 | 0.00 | 0.00 | 90 | 1017.6 |
| 20260505065940 | 48 | 133 | 0.0 | 0.0 | 0.00 | 0.00 | 0.00 | 90 | 1017.6 |
| 20260505065437 | 48 | 133 | 0.0 | 0.0 | 0.00 | 0.00 | 0.00 | 90 | 1017.5 |
| 20260505064934 | 49 | 133 | 0.0 | 0.0 | 0.00 | 0.00 | 0.00 | 90 | 1017.6 |
| 20260505064431 | 49 | 133 | 0.0 | 0.0 | 0.00 | 0.00 | 0.00 | 90 | 1017.7 |
| 20260505063929 | 49 | 133 | 0.0 | 0.0 | 0.00 | 0.00 | 0.00 | 90 | 1017.6 |
| 20260505063425 | 49 | 133 | 0.0 | 0.0 | 0.00 | 0.00 | 0.00 | 90 | 1017.7 |
| 20260505062922 | 49 | 133 | 0.0 | 0.0 | 0.00 | 0.00 | 0.00 | 89 | 1017.7 |
| 20260505062419 | 49 | 133 | 0.0 | 0.0 | 0.00 | 0.00 | 0.00 | 89 | 1017.9 |
| 20260505061915 | 50 | 132 | 0.0 | 0.0 | 0.00 | 0.00 | 0.00 | 89 | 1017.9 |
| 20260505061414 | 50 | 132 | 0.0 | 0.0 | 0.00 | 0.00 | 0.00 | 89 | 1017.8 |
| 20260505060911 | 50 | 132 | 0.0 | 0.0 | 0.00 | 0.00 | 0.00 | 89 | 1017.9 |
| 20260505060408 | 51 | 132 | 0.0 | 0.0 | 0.00 | 0.00 | 0.00 | 89 | 1017.9 |
| 20260505055904 | 51 | 132 | 0.0 | 0.0 | 0.00 | 0.00 | 0.00 | 89 | 1017.8 |
| 20260505055400 | 51 | 132 | 0.0 | 0.0 | 0.00 | 0.00 | 0.00 | 89 | 1017.8 |
| 20260505054857 | 51 | 132 | 0.0 | 0.0 | 0.00 | 0.00 | 0.00 | 88 | 1017.8 |
| 20260505054355 | 52 | 132 | 0.0 | 0.0 | 0.00 | 0.00 | 0.00 | 88 | 1017.6 |
| 20260505053853 | 52 | 132 | 0.0 | 0.0 | 0.00 | 0.00 | 0.00 | 88 | 1017.6 |
| 20260505053349 | 52 | 132 | 0.0 | 0.0 | 0.00 | 0.00 | 0.00 | 88 | 1017.9 |
| 20260505052846 | 52 | 131 | 0.0 | 0.0 | 0.00 | 0.00 | 0.00 | 88 | 1018.0 |
| 20260505052343 | 52 | 131 | 0.0 | 0.0 | 0.00 | 0.00 | 0.00 | 88 | 1017.6 |
| 20260505051840 | 52 | 131 | 0.0 | 0.0 | 0.00 | 0.00 | 0.00 | 88 | 1017.8 |
| 20260505051338 | 53 | 131 | 0.0 | 0.0 | 0.00 | 0.00 | 0.00 | 88 | 1018.0 |
| 20260505050835 | 53 | 131 | 0.0 | 0.0 | 0.00 | 0.00 | 0.00 | 88 | 1017.9 |
| 20260505050334 | 53 | 131 | 0.0 | 0.9 | 0.00 | 0.00 | 0.00 | 88 | 1017.7 |
| 20260505041301 | 53 | 135 | 0.0 | 0.0 | 0.00 | 0.00 | 0.00 | 86 | 1017.6 |
| 20260505040758 | 53 | 135 | 0.0 | 0.0 | 0.00 | 0.00 | 0.00 | 86 | 1017.9 |
| 20260505040255 | 53 | 135 | 0.0 | 0.0 | 0.00 | 0.00 | 0.00 | 86 | 1018.1 |
| 20260505035752 | 53 | 135 | 0.0 | 0.0 | 0.00 | 0.00 | 0.00 | 86 | 1018.0 |
| 20260505035248 | 53 | 135 | 0.0 | 0.0 | 0.00 | 0.00 | 0.00 | 85 | 1017.9 |
| 20260505034745 | 54 | 136 | 0.0 | 0.9 | 0.00 | 0.00 | 0.00 | 85 | 1018.1 |
| 20260505034242 | 54 | 136 | 0.0 | 0.9 | 0.00 | 0.00 | 0.00 | 85 | 1018.1 |